Nellis AFB, NV

2:44 AM PST on December 08, 2019 (GMT -0800)
Nellis Air Force Base

Weather History for KLSV - September, 2019

Change the Weather History Date:

Saturday, September 7, 2019

  Actual Average Record
Temperature  
Mean Temperature 92 °F -  
Max Temperature 104 °F 95 °F 104 °F (2008)
Min Temperature 79 °F 70 °F 64 °F (2000)
Cooling Degree Days 26    
Growing Degree Days 42 (Base 50)    
Moisture  
Dew Point 46 °F    
Average Humidity 21    
Maximum Humidity 32    
Minimum Humidity 12    
Precipitation  
Precipitation 0.00 in - - ()
Sea Level Pressure  
Sea Level Pressure 29.74 in    
Wind  
Wind Speed 7 mph (South)    
Max Wind Speed 22 mph    
Max Gust Speed 36 mph    
Visibility 10 miles    
Events      
Averages and records for this station are not official NWS values.
T = Trace of Precipitation, MM = Missing Value Source: NWS Daily Summary

Daily Weather History Graph

Daily Weather History Graph

Search for Another Location

Airport or City:

Astronomy

Sep. 07, 2019 Rise Set
Actual Time 6:16 AM PDT 6:59 PM PDT
Civil Twilight 5:50 AM PDT 7:25 PM PDT
Nautical Twilight 5:19 AM PDT 7:56 PM PDT
Astronomical Twilight 4:47 AM PDT 8:27 PM PDT
Moon 3:10 PM PDT (9/7) 12:19 AM PDT (9/7)
Length of Visible Light 13h 35m
Length of Day
12h 43m
Waxing Gibbous, 67% of the Moon is Illuminated
Sep 7
Waxing Gibbous
Sep 13
Full
Sep 21
Last Quarter
Sep 28
New
Oct 5
First Quarter

Hourly Weather History & Observations

Time (PDT) Temp. Dew Point Humidity Pressure Visibility Wind Dir Wind Speed Gust Speed Precip Events Conditions
12:58 AM 89.2 °F 49.8 °F 26% 29.83 in 10.0 mi SSW 5.8 mph - N/A   Clear
1:58 AM 88.0 °F 47.7 °F 25% 29.82 in 10.0 mi South 8.1 mph - N/A   Clear
2:58 AM 87.3 °F 48.2 °F 26% 29.82 in 10.0 mi SSE 9.2 mph - N/A   Clear
3:58 AM 85.6 °F 48.7 °F 28% 29.82 in 10.0 mi SSW 4.6 mph - N/A   Clear
4:58 AM 83.8 °F 50.0 °F 31% 29.82 in 10.0 mi South 6.9 mph - N/A   Clear
5:58 AM 79.9 °F 47.3 °F 32% 29.84 in 10.0 mi NE 3.5 mph - N/A   Clear
6:58 AM 80.4 °F 47.8 °F 32% 29.86 in 10.0 mi Calm Calm - N/A   Clear
7:58 AM 85.8 °F 49.8 °F 29% 29.86 in 10.0 mi Calm Calm - N/A   Clear
8:58 AM 88.5 °F 52.2 °F 29% 29.86 in 10.0 mi Calm Calm - N/A   Clear
9:58 AM 92.1 °F 50.0 °F 24% 29.85 in 10.0 mi South 4.6 mph - N/A   Clear
10:58 AM 95.2 °F 50.4 °F 22% 29.83 in 10.0 mi South 3.5 mph - N/A   Clear
11:58 AM 98.8 °F 49.3 °F 19% 29.80 in 10.0 mi Calm Calm - N/A   Clear
12:58 PM 101.5 °F 48.6 °F 17% 29.78 in 10.0 mi South 6.9 mph - N/A   Clear
1:58 PM 103.1 °F 48.2 °F 16% 29.72 in 10.0 mi West 5.8 mph - N/A   Partly Cloudy
2:58 PM 103.1 °F 48.2 °F 16% 29.70 in 10.0 mi SE 4.6 mph - N/A   Clear
3:58 PM 103.5 °F 48.4 °F 16% 29.67 in 10.0 mi ESE 8.1 mph - N/A   Clear
4:58 PM 103.3 °F 44.8 °F 14% 29.64 in 10.0 mi SE 15.0 mph - N/A   Clear
5:19 PM 104.0 °F 42.8 °F 12% 29.60 in 10.0 mi SE 21.9 mph 35.7 mph N/A   Clear
5:20 PM 104.0 °F 42.8 °F 12% 29.62 in 10.0 mi South 15.0 mph 35.7 mph N/A   Clear
5:58 PM 102.6 °F 42.3 °F 13% 29.62 in 10.0 mi South 18.4 mph - N/A   Mostly Cloudy
6:58 PM 99.1 °F 43.3 °F 15% 29.62 in 10.0 mi South 16.1 mph - N/A   Clear
7:58 PM 96.8 °F 37.8 °F 13% 29.63 in 10.0 mi South 15.0 mph - N/A   Clear
8:58 PM 93.7 °F 40.6 °F 16% 29.64 in 10.0 mi SSE 6.9 mph - N/A   Clear
9:58 PM 92.1 °F 41.0 °F 17% 29.63 in 10.0 mi SSE 9.2 mph - N/A   Clear
10:58 PM 91.4 °F 41.9 °F 18% 29.64 in 10.0 mi South 16.1 mph - N/A   Clear
11:58 PM 90.5 °F 38.1 °F 16% 29.62 in 10.0 mi SSW 13.8 mph - N/A   Clear